Location: Winthrop
(48.4780°N, 120.1850°W)
Time: 03:07:02
(UTC-07:00)

Transit 2A - Pass Details

Date: 16 June 2024
Orbit: 591 x 960 km, 66.7° (Epoch: 23 July)

Event Time Altitude Azimuth Distance (km) Brightness Sun altitude
Rises 02:02:34 0° 324° (NW) 3,481 10.0 -16.9°
Reaches altitude 10° 02:04:59 10° 325° (NW) 2,583 9.3 -16.8°
Maximum altitude 02:11:06 90° 167° (SSE) 947 6.4 -16.5°
Drops below altitude 10° 02:17:28 10° 147° (SSE) 2,687 8.4 -16.2°
Enters shadow 02:18:04 - 147° (SSE) 2,908 8.6 -16.1°
